sat.trackr.live / text

‹ back to catalog

STARLINK-4357

NORAD 53662 · 2022-105Q

PAYLOAD ACTIVE UNKNOWN

§ Identity

Operator
Country
US
Launch date
2022-08-31
Launch site
AFWTR
Launch vehicle
Mass (kg)
RCS (m²)

Purposes: comms

External: N2YO · Heavens-Above · Gunter

§ Orbital elements

Epoch: 2026-05-25T04:00:03.998880Z

Period
93.50 min
Inclination
97.6030°
Eccentricity
0.0001875
Mean motion
15.40156572 rev/d
Perigee alt
444.4 km
Apogee alt
446.9 km
Semi-major
6,823.8 km
B*
2.6516e-3
RAAN
27.9743°
Arg perigee
90.1087°
Mean anomaly
76.1191°
Rev number
586

§ Raw data

STARLINK-43571 53662U 22105Q   26145.16671295  .00107622  00000+0  26516-2 0  99962 53662  97.6030  27.9743 0001875  90.1087  76.1191 15.40156572  5867

JSON: /api/v1/satellites/53662 · /tle

For live sub-satellite position, see the globe view (requires WebGL).

§ Visibility from observer

Set your observer location to see the next 7 days of passes ≥ 10°. The values pass through the URL so the page stays shareable.

No JS? Fill the form by hand. The geolocation button needs JavaScript.